FDX8T LIMC-ELLX

Flight info

Callsign FDX8T
Flight time 1h 1m
Altitude 34000
Route AOSTA DCT ORSUD DCT MOLUS DCT GILIR DCT PENDU DCT IXILU DCT EPL G21 GIVOR
Aircraft B77L/H-SDE1E2E3FGHIJ2J3J4J5M1RWXY/LB1D1

Departure

Time 2026-04-30 08:04
Airport Milan Malpensa International Airport (LIMC)

Arrival

Time 2026-04-30 09:06
Airport Luxembourg-Findel International Airport (ELLX)
Time Latitude Longitude Altitude Speed Heading
2026-04-30 07:21 45.64087 8.72386 763 ft 0 kts 78°
2026-04-30 07:59 45.64091 8.72413 763 ft 11 kts 77°
2026-04-30 07:59 45.64122 8.72538 761 ft 14 kts 64°
2026-04-30 07:59 45.64193 8.72634 757 ft 14 kts 26°
2026-04-30 08:00 45.64388 8.72687 764 ft 14 kts 356°
2026-04-30 08:00 45.64485 8.72655 761 ft 14 kts 347°
2026-04-30 08:00 45.64576 8.72605 768 ft 14 kts 310°
2026-04-30 08:00 45.64556 8.72478 769 ft 14 kts 238°
2026-04-30 08:01 45.64503 8.72360 771 ft 14 kts 248°
2026-04-30 08:01 45.64494 8.72220 773 ft 14 kts 276°
2026-04-30 08:01 45.64504 8.72079 775 ft 14 kts 276°
2026-04-30 08:01 45.64506 8.72044 775 ft 0 kts 272°
2026-04-30 08:03 45.64506 8.72042 775 ft 2 kts 272°
2026-04-30 08:03 45.64470 8.71915 775 ft 6 kts 185°
2026-04-30 08:03 45.64450 8.71914 775 ft 0 kts 181°
2026-04-30 08:04 45.64388 8.71924 773 ft 43 kts 170°
2026-04-30 08:04 45.63714 8.72109 758 ft 148 kts 169°
2026-04-30 08:04 45.62582 8.72367 1415 ft 162 kts 175°
2026-04-30 08:04 45.61430 8.72626 2207 ft 182 kts 159°
2026-04-30 08:05 45.60128 8.73180 2529 ft 211 kts 184°
2026-04-30 08:05 45.58742 8.72472 3128 ft 216 kts 210°
2026-04-30 08:05 45.57389 8.71461 3918 ft 221 kts 205°
2026-04-30 08:05 45.56006 8.70563 4826 ft 222 kts 203°
2026-04-30 08:06 45.54559 8.69668 5672 ft 225 kts 205°
2026-04-30 08:06 45.53262 8.68334 6173 ft 245 kts 229°
2026-04-30 08:06 45.52371 8.66119 6597 ft 268 kts 253°
2026-04-30 08:06 45.52146 8.63456 7406 ft 276 kts 276°
2026-04-30 08:07 45.52730 8.60894 8259 ft 279 kts 301°
2026-04-30 08:07 45.53740 8.58495 9075 ft 285 kts 301°
2026-04-30 08:07 45.54759 8.56058 10019 ft 287 kts 301°
2026-04-30 08:07 45.55730 8.53570 10878 ft 290 kts 291°
2026-04-30 08:08 45.56109 8.50645 11238 ft 314 kts 276°
2026-04-30 08:08 45.56128 8.47412 11409 ft 340 kts 263°
2026-04-30 08:08 45.55620 8.43993 11673 ft 365 kts 257°
2026-04-30 08:08 45.54871 8.40460 12432 ft 377 kts 253°
2026-04-30 08:09 45.54074 8.36866 13338 ft 383 kts 255°
2026-04-30 08:09 45.53350 8.33174 14265 ft 389 kts 257°
2026-04-30 08:09 45.52674 8.29412 15137 ft 395 kts 258°
2026-04-30 08:09 45.52016 8.25571 16004 ft 401 kts 259°
2026-04-30 08:10 45.51370 8.21674 16854 ft 407 kts 259°
2026-04-30 08:10 45.50713 8.17723 17680 ft 413 kts 259°
2026-04-30 08:10 45.50038 8.13714 18482 ft 419 kts 259°
2026-04-30 08:10 45.49111 8.09760 19091 ft 429 kts 245°
2026-04-30 08:11 45.47317 8.06332 19770 ft 434 kts 229°
2026-04-30 08:11 45.45230 8.03168 20437 ft 441 kts 229°
2026-04-30 08:11 45.43173 7.99906 21214 ft 444 kts 231°
2026-04-30 08:11 45.41134 7.96591 21993 ft 447 kts 231°
2026-04-30 08:12 45.39082 7.93233 22691 ft 452 kts 231°
2026-04-30 08:12 45.37008 7.89843 23374 ft 456 kts 231°
2026-04-30 08:12 45.34914 7.86432 24065 ft 460 kts 231°
2026-04-30 08:12 45.32802 7.83004 24748 ft 463 kts 231°
2026-04-30 08:13 45.30716 7.79524 25336 ft 461 kts 236°
2026-04-30 08:13 45.29280 7.75477 25793 ft 461 kts 256°
2026-04-30 08:13 45.28810 7.71007 26401 ft 457 kts 272°
2026-04-30 08:13 45.29180 7.66545 27047 ft 455 kts 287°
2026-04-30 08:14 45.30314 7.62375 27630 ft 454 kts 300°
2026-04-30 08:14 45.32166 7.58766 28166 ft 454 kts 315°
2026-04-30 08:14 45.34645 7.55991 28661 ft 456 kts 330°
2026-04-30 08:14 45.37555 7.54195 29161 ft 459 kts 343°
2026-04-30 08:15 45.40715 7.53471 29618 ft 461 kts 358°
2026-04-30 08:15 45.43903 7.53305 29838 ft 461 kts 351°
2026-04-30 08:15 45.46994 7.52098 30139 ft 463 kts 339°
2026-04-30 08:15 45.49979 7.50404 30762 ft 460 kts 338°
2026-04-30 08:16 45.52947 7.48738 31459 ft 456 kts 338°
2026-04-30 08:16 45.55901 7.47122 32077 ft 454 kts 339°
2026-04-30 08:16 45.58857 7.45539 32600 ft 453 kts 339°
2026-04-30 08:16 45.61767 7.44002 33120 ft 452 kts 339°
2026-04-30 08:17 45.64757 7.42433 33617 ft 451 kts 339°
2026-04-30 08:17 45.67659 7.40911 34084 ft 450 kts 339°
2026-04-30 08:17 45.70600 7.39363 34241 ft 452 kts 339°
2026-04-30 08:18 45.76490 7.36249 34234 ft 449 kts 339°
2026-04-30 08:18 45.82106 7.32463 34244 ft 447 kts 325°
2026-04-30 08:19 45.87117 7.27137 34238 ft 449 kts 323°
2026-04-30 08:19 45.92132 7.21823 34237 ft 448 kts 324°
2026-04-30 08:20 45.97264 7.16699 34222 ft 449 kts 324°
2026-04-30 08:20 46.02369 7.11498 34196 ft 450 kts 324°
2026-04-30 08:21 46.07459 7.06253 34200 ft 451 kts 325°
2026-04-30 08:21 46.12562 7.00984 34198 ft 452 kts 325°
2026-04-30 08:22 46.17674 6.95704 34201 ft 452 kts 325°
2026-04-30 08:22 46.22783 6.90416 34187 ft 452 kts 325°
2026-04-30 08:23 46.27853 6.85155 34195 ft 451 kts 324°
2026-04-30 08:23 46.32939 6.79865 34213 ft 450 kts 324°
2026-04-30 08:24 46.38020 6.74570 34218 ft 450 kts 324°
2026-04-30 08:24 46.43108 6.69281 34212 ft 450 kts 326°
2026-04-30 08:25 46.48564 6.64849 34227 ft 449 kts 334°
2026-04-30 08:25 46.54208 6.60941 34227 ft 449 kts 334°
2026-04-30 08:26 46.59852 6.57013 34217 ft 450 kts 334°
2026-04-30 08:26 46.65492 6.53039 34225 ft 451 kts 334°
2026-04-30 08:27 46.71134 6.49041 34214 ft 451 kts 334°
2026-04-30 08:27 46.76786 6.45023 34224 ft 452 kts 334°
2026-04-30 08:28 46.82447 6.40994 34196 ft 453 kts 334°
2026-04-30 08:28 46.88120 6.36946 34205 ft 455 kts 334°
2026-04-30 08:29 46.93809 6.32874 34204 ft 456 kts 335°
2026-04-30 08:29 46.99502 6.28790 34202 ft 456 kts 335°
2026-04-30 08:30 47.05202 6.24693 34192 ft 457 kts 335°
2026-04-30 08:30 47.10917 6.20589 34188 ft 458 kts 335°
2026-04-30 08:31 47.16646 6.16478 34176 ft 459 kts 335°
2026-04-30 08:31 47.21417 6.13045 34175 ft 460 kts 336°
2026-04-30 08:32 47.28097 6.08226 34174 ft 460 kts 336°
2026-04-30 08:32 47.33995 6.04632 34188 ft 458 kts 347°
2026-04-30 08:33 47.39238 6.03312 34191 ft 456 kts 358°
2026-04-30 08:33 47.45567 6.03374 34195 ft 455 kts
2026-04-30 08:34 47.51911 6.03612 34198 ft 457 kts
2026-04-30 08:34 47.58230 6.03779 34218 ft 458 kts
2026-04-30 08:35 47.64601 6.03908 34209 ft 458 kts
2026-04-30 08:35 47.70977 6.04038 34218 ft 458 kts
2026-04-30 08:36 47.77350 6.04185 34210 ft 458 kts
2026-04-30 08:36 47.83724 6.04385 34205 ft 458 kts
2026-04-30 08:37 47.90096 6.04595 34209 ft 458 kts
2026-04-30 08:37 47.96459 6.04796 34223 ft 457 kts
2026-04-30 08:38 48.02816 6.04993 34215 ft 457 kts
2026-04-30 08:38 48.09171 6.05189 34228 ft 456 kts
2026-04-30 08:39 48.15523 6.05388 34233 ft 457 kts
2026-04-30 08:39 48.21879 6.05588 34233 ft 457 kts
2026-04-30 08:40 48.28223 6.05921 34235 ft 454 kts 10°
2026-04-30 08:40 48.34245 6.08503 34248 ft 450 kts 25°
2026-04-30 08:41 48.39614 6.13251 34238 ft 447 kts 34°
2026-04-30 08:41 48.44809 6.18439 33905 ft 453 kts 34°
2026-04-30 08:41 48.47464 6.21065 33195 ft 457 kts 34°
2026-04-30 08:42 48.50105 6.23654 32649 ft 450 kts 34°
2026-04-30 08:42 48.52718 6.26205 32051 ft 444 kts 34°
2026-04-30 08:42 48.55301 6.28722 31467 ft 439 kts 35°
2026-04-30 08:42 48.57851 6.31210 30883 ft 434 kts 35°
2026-04-30 08:43 48.60370 6.33674 30324 ft 429 kts 35°
2026-04-30 08:43 48.62832 6.36085 29768 ft 425 kts 35°
2026-04-30 08:43 48.65369 6.38285 29169 ft 421 kts 26°
2026-04-30 08:43 48.68178 6.39515 28615 ft 422 kts 11°
2026-04-30 08:44 48.71085 6.39790 28077 ft 416 kts
2026-04-30 08:44 48.73961 6.40006 27530 ft 413 kts
2026-04-30 08:44 48.76820 6.40248 26991 ft 409 kts
2026-04-30 08:44 48.79651 6.40512 26453 ft 406 kts
2026-04-30 08:45 48.82462 6.40785 25923 ft 403 kts
2026-04-30 08:45 48.85251 6.41064 25392 ft 400 kts
2026-04-30 08:45 48.88018 6.41348 24875 ft 397 kts
2026-04-30 08:45 48.90768 6.41632 24360 ft 394 kts
2026-04-30 08:46 48.93496 6.41911 23848 ft 391 kts
2026-04-30 08:46 48.96198 6.42189 23347 ft 388 kts
2026-04-30 08:46 48.98882 6.42466 22851 ft 385 kts
2026-04-30 08:46 49.01547 6.42742 22360 ft 382 kts
2026-04-30 08:47 49.04190 6.43013 21876 ft 380 kts
2026-04-30 08:47 49.06817 6.43284 21393 ft 377 kts
2026-04-30 08:47 49.09422 6.43555 20908 ft 374 kts
2026-04-30 08:47 49.12013 6.43823 20427 ft 371 kts
2026-04-30 08:48 49.14576 6.44088 19964 ft 368 kts
2026-04-30 08:48 49.17124 6.44349 19491 ft 366 kts
2026-04-30 08:48 49.19657 6.44612 19025 ft 363 kts
2026-04-30 08:48 49.22164 6.44556 18539 ft 362 kts 354°
2026-04-30 08:49 49.24564 6.43357 18102 ft 363 kts 340°
2026-04-30 08:49 49.26848 6.41738 17644 ft 361 kts 339°
2026-04-30 08:49 49.29113 6.40115 17200 ft 358 kts 339°
2026-04-30 08:49 49.31365 6.38526 16744 ft 355 kts 339°
2026-04-30 08:50 49.33612 6.36969 16286 ft 352 kts 340°
2026-04-30 08:50 49.35843 6.35432 15845 ft 350 kts 340°
2026-04-30 08:50 49.38056 6.33912 15384 ft 349 kts 340°
2026-04-30 08:50 49.40336 6.32754 14938 ft 344 kts 351°
2026-04-30 08:51 49.42648 6.32063 14668 ft 341 kts 354°
2026-04-30 08:51 49.44956 6.31440 14463 ft 328 kts 353°
2026-04-30 08:51 49.47148 6.30785 14209 ft 317 kts 352°
2026-04-30 08:51 49.49283 6.30110 13996 ft 309 kts 352°
2026-04-30 08:52 49.51346 6.29466 13857 ft 294 kts 356°
2026-04-30 08:52 49.53319 6.29586 13583 ft 278 kts 18°
2026-04-30 08:52 49.55157 6.30416 13283 ft 274 kts 20°
2026-04-30 08:52 49.56999 6.31279 12877 ft 280 kts 20°
2026-04-30 08:53 49.58890 6.32159 12472 ft 287 kts 20°
2026-04-30 08:53 49.60819 6.33049 12048 ft 290 kts 20°
2026-04-30 08:53 49.62727 6.33925 11698 ft 281 kts 20°
2026-04-30 08:53 49.64583 6.34765 11484 ft 274 kts 20°
2026-04-30 08:54 49.66387 6.35586 11278 ft 269 kts 20°
2026-04-30 08:54 49.68183 6.36402 11010 ft 269 kts 20°
2026-04-30 08:54 49.70000 6.37234 10713 ft 277 kts 20°
2026-04-30 08:54 49.71908 6.37833 10284 ft 287 kts
2026-04-30 08:55 49.73843 6.37111 10112 ft 288 kts 336°
2026-04-30 08:55 49.75381 6.35158 9863 ft 291 kts 309°
2026-04-30 08:55 49.76222 6.32309 9547 ft 296 kts 281°
2026-04-30 08:55 49.76149 6.29145 9269 ft 297 kts 253°
2026-04-30 08:56 49.75273 6.26291 8932 ft 292 kts 236°
2026-04-30 08:56 49.74192 6.23603 8612 ft 297 kts 235°
2026-04-30 08:56 49.73087 6.20890 8278 ft 298 kts 235°
2026-04-30 08:56 49.71990 6.18183 7978 ft 296 kts 235°
2026-04-30 08:57 49.70902 6.15482 7581 ft 296 kts 235°
2026-04-30 08:57 49.69820 6.12789 7240 ft 293 kts 236°
2026-04-30 08:57 49.68752 6.10124 6933 ft 290 kts 235°
2026-04-30 08:57 49.67699 6.07495 6612 ft 286 kts 235°
2026-04-30 08:58 49.66662 6.04900 6286 ft 283 kts 236°
2026-04-30 08:58 49.65632 6.02320 5891 ft 281 kts 236°
2026-04-30 08:58 49.64609 5.99769 5377 ft 281 kts 235°
2026-04-30 08:58 49.63602 5.97248 5100 ft 279 kts 235°
2026-04-30 08:59 49.62580 5.94730 4802 ft 271 kts 230°
2026-04-30 08:59 49.61232 5.92928 4629 ft 246 kts 198°
2026-04-30 08:59 49.59703 5.92395 4442 ft 212 kts 174°
2026-04-30 08:59 49.58286 5.92600 3963 ft 198 kts 162°
2026-04-30 09:00 49.57075 5.93289 3570 ft 176 kts 144°
2026-04-30 09:00 49.56069 5.94230 3273 ft 163 kts 142°
2026-04-30 09:00 49.55252 5.95239 3045 ft 143 kts 122°
2026-04-30 09:00 49.54773 5.96597 3060 ft 146 kts 108°
2026-04-30 09:01 49.54393 5.98009 2972 ft 139 kts 124°
2026-04-30 09:01 49.53942 5.99284 2949 ft 130 kts 85°
2026-04-30 09:01 49.54414 6.00414 2991 ft 131 kts 51°
2026-04-30 09:01 49.54926 6.01494 3000 ft 125 kts 62°
2026-04-30 09:02 49.55928 6.03780 2971 ft 126 kts 62°
2026-04-30 09:02 49.56381 6.04898 3009 ft 125 kts 63°
2026-04-30 09:02 49.56875 6.06018 3015 ft 129 kts 61°
2026-04-30 09:03 49.57383 6.07200 2891 ft 132 kts 61°
2026-04-30 09:03 49.57856 6.08354 2719 ft 124 kts 63°
2026-04-30 09:03 49.58303 6.09512 2556 ft 126 kts 63°
2026-04-30 09:03 49.58743 6.10689 2398 ft 128 kts 62°
2026-04-30 09:04 49.59192 6.11887 2215 ft 130 kts 62°
2026-04-30 09:04 49.59645 6.13099 2043 ft 130 kts 62°
2026-04-30 09:04 49.60092 6.14305 1880 ft 130 kts 62°
2026-04-30 09:04 49.60545 6.15525 1706 ft 131 kts 62°
2026-04-30 09:05 49.60997 6.16742 1517 ft 131 kts 61°
2026-04-30 09:05 49.61451 6.17955 1360 ft 131 kts 60°
2026-04-30 09:05 49.61907 6.19181 1205 ft 133 kts 60°
2026-04-30 09:05 49.62330 6.20333 1192 ft 103 kts 60°
2026-04-30 09:06 49.62598 6.21016 1202 ft 43 kts 58°
2026-04-30 09:06 49.62811 6.21239 1204 ft 10 kts 31°
2026-04-30 09:06 49.62817 6.21245 1204 ft 2 kts 31°
2026-04-30 09:06 49.62831 6.21259 1204 ft 3 kts 31°
2026-04-30 09:07 49.62855 6.21280 1204 ft 4 kts 30°
2026-04-30 09:07 49.62882 6.21305 1204 ft 5 kts 28°
2026-04-30 09:07 49.62914 6.21306 1206 ft 5 kts 345°
2026-04-30 09:07 49.62943 6.21283 1209 ft 5 kts 331°
2026-04-30 09:08 49.62972 6.21258 1211 ft 5 kts 329°
2026-04-30 09:08 49.63000 6.21234 1213 ft 5 kts 333°
2026-04-30 09:08 49.63030 6.21212 1215 ft 5 kts 335°
2026-04-30 09:08 49.63047 6.21200 1216 ft 0 kts 335°
2026-04-30 09:11 49.63600 6.22633 1222 ft 0 kts 239°